Time,TemperatureF,DewpointF,PressureIn,WindDirection,WindDirectionDegrees,WindSpeedMPH,WindSpeedGustMPH,Humidity,HourlyPrecipIn,Conditions,Clouds,dailyrainin,SolarRadiationWatts/m^2,SoftwareType,DateUTC
2013-09-28 00:02:00,39.0,31.0,-100.00,SSE,161,3.0,8.0,74,0.00,,,-99.99,0.000000,,2013-09-28 06:02:00,
2013-09-28 00:42:00,39.0,31.0,-100.00,SSE,161,3.0,8.0,74,0.00,,,-99.99,0.000000,,2013-09-28 06:42:00,
2013-09-28 00:52:00,39.0,31.0,-100.00,SSE,161,3.0,8.0,74,0.00,,,-99.99,0.000000,,2013-09-28 06:52:00,
2013-09-28 01:02:00,38.0,32.0,-100.00,SW,226,2.0,5.0,80,0.00,,,-99.99,0.000000,,2013-09-28 07:02:00,
2013-09-28 01:42:00,38.0,32.0,-100.00,SW,226,2.0,5.0,80,0.00,,,-99.99,0.000000,,2013-09-28 07:42:00,
2013-09-28 01:52:00,38.0,32.0,-100.00,SW,226,2.0,5.0,80,0.00,,,-99.99,0.000000,,2013-09-28 07:52:00,
2013-09-28 02:22:00,38.0,32.0,-100.00,South,170,2.0,11.0,79,0.01,,,-99.99,0.000000,,2013-09-28 08:22:00,
2013-09-28 02:32:00,38.0,32.0,-100.00,South,170,2.0,11.0,79,0.01,,,-99.99,0.000000,,2013-09-28 08:32:00,
2013-09-28 02:43:00,38.0,32.0,-100.00,South,170,2.0,11.0,79,0.01,,,-99.99,0.000000,,2013-09-28 08:43:00,
2013-09-28 02:53:00,38.0,32.0,-100.00,South,170,2.0,11.0,79,0.01,,,-99.99,0.000000,,2013-09-28 08:53:00,
2013-09-28 03:01:00,38.0,32.0,-100.00,South,170,2.0,11.0,79,0.01,,,-99.99,0.000000,,2013-09-28 09:01:00,
2013-09-28 03:02:00,38.0,32.0,-100.00,NNW,331,2.0,5.0,80,0.00,,,0.02,0.000000,,2013-09-28 09:02:00,
2013-09-28 03:43:00,38.0,32.0,-100.00,NNW,331,2.0,5.0,80,0.00,,,0.02,0.000000,,2013-09-28 09:43:00,
2013-09-28 03:54:00,38.0,32.0,-100.00,NNW,331,2.0,5.0,80,0.00,,,0.02,0.000000,,2013-09-28 09:54:00,
2013-09-28 04:02:00,39.0,34.0,-100.00,South,180,3.0,9.0,81,0.00,,,0.02,0.000000,,2013-09-28 10:02:00,
2013-09-28 04:43:00,39.0,34.0,-100.00,South,180,3.0,9.0,81,0.00,,,0.02,0.000000,,2013-09-28 10:43:00,
2013-09-28 04:52:00,39.0,34.0,-100.00,South,180,3.0,9.0,81,0.00,,,0.02,0.000000,,2013-09-28 10:52:00,
2013-09-28 05:43:00,38.0,32.0,-100.00,SSW,212,1.0,7.0,79,0.00,,,0.02,0.000000,,2013-09-28 11:43:00,
2013-09-28 05:52:00,38.0,32.0,-100.00,SSW,212,1.0,7.0,79,0.00,,,0.02,0.000000,,2013-09-28 11:52:00,
2013-09-28 06:01:00,38.0,32.0,-100.00,SSW,212,1.0,7.0,79,0.00,,,0.02,0.000000,,2013-09-28 12:01:00,
2013-09-28 06:02:00,38.0,34.0,-100.00,NNW,329,2.0,5.0,87,0.01,,,0.03,0.000000,,2013-09-28 12:02:00,
2013-09-28 06:42:00,38.0,34.0,-100.00,NNW,329,2.0,5.0,87,0.01,,,0.03,0.000000,,2013-09-28 12:42:00,
2013-09-28 06:52:00,38.0,34.0,-100.00,NNW,329,2.0,5.0,87,0.01,,,0.03,0.000000,,2013-09-28 12:52:00,
2013-09-28 07:02:00,38.0,36.0,-100.00,WNW,298,2.0,5.0,93,0.00,,,0.03,0.000000,,2013-09-28 13:02:00,
2013-09-28 07:42:00,38.0,36.0,-100.00,WNW,298,2.0,5.0,93,0.00,,,0.03,0.000000,,2013-09-28 13:42:00,
2013-09-28 07:52:00,38.0,36.0,-100.00,WNW,298,2.0,5.0,93,0.00,,,0.03,0.000000,,2013-09-28 13:52:00,
2013-09-28 08:02:00,38.0,36.0,-100.00,WNW,299,1.0,3.0,94,0.02,,,0.05,5.000000,,2013-09-28 14:02:00,
2013-09-28 08:22:00,38.0,36.0,-100.00,WNW,299,1.0,3.0,94,0.02,,,0.05,5.000000,,2013-09-28 14:22:00,
2013-09-28 08:32:00,38.0,36.0,-100.00,WNW,299,1.0,3.0,94,0.02,,,0.05,5.000000,,2013-09-28 14:32:00,
2013-09-28 08:42:00,38.0,36.0,-100.00,WNW,299,1.0,3.0,94,0.02,,,0.05,5.000000,,2013-09-28 14:42:00,
2013-09-28 08:52:00,38.0,36.0,-100.00,WNW,299,1.0,3.0,94,0.02,,,0.05,5.000000,,2013-09-28 14:52:00,
2013-09-28 09:02:00,39.0,38.0,-100.00,North,8,1.0,4.0,96,0.01,,,0.06,42.000000,,2013-09-28 15:02:00,
2013-09-28 09:44:00,39.0,38.0,-100.00,North,8,1.0,4.0,96,0.01,,,0.06,42.000000,,2013-09-28 15:44:00,
2013-09-28 09:54:00,39.0,38.0,-100.00,North,8,1.0,4.0,96,0.01,,,0.06,42.000000,,2013-09-28 15:54:00,
2013-09-28 10:02:00,46.0,41.0,-100.00,SSE,161,5.0,7.0,82,0.00,,,-99.99,294.000000,,2013-09-28 16:02:00,
2013-09-28 10:24:00,46.0,41.0,-100.00,SSE,161,5.0,7.0,82,0.00,,,-99.99,294.000000,,2013-09-28 16:24:00,
2013-09-28 10:34:00,46.0,41.0,-100.00,SSE,161,5.0,7.0,82,0.00,,,-99.99,294.000000,,2013-09-28 16:34:00,
2013-09-28 10:43:00,46.0,41.0,-100.00,SSE,161,5.0,7.0,82,0.00,,,-99.99,294.000000,,2013-09-28 16:43:00,
2013-09-28 10:54:00,46.0,41.0,-100.00,SSE,161,5.0,7.0,82,0.00,,,-99.99,294.000000,,2013-09-28 16:54:00,
2013-09-28 11:02:00,45.0,40.0,-100.00,SSE,152,4.0,9.0,83,0.00,,,0.06,310.000000,,2013-09-28 17:02:00,
2013-09-28 11:43:00,45.0,40.0,-100.00,SSE,152,4.0,9.0,83,0.00,,,0.06,310.000000,,2013-09-28 17:43:00,
2013-09-28 11:52:00,45.0,40.0,-100.00,SSE,152,4.0,9.0,83,0.00,,,0.06,310.000000,,2013-09-28 17:52:00,
2013-09-28 12:02:00,49.0,41.0,-100.00,SE,139,4.0,9.0,75,0.01,,,0.07,371.000000,,2013-09-28 18:02:00,
2013-09-28 12:52:00,49.0,41.0,-100.00,SE,139,4.0,9.0,75,0.01,,,0.07,371.000000,,2013-09-28 18:52:00,
2013-09-28 15:02:00,55.0,39.0,-100.00,SSW,207,6.0,15.0,55,-99.99,,,0.06,698.000000,,2013-09-28 21:02:00,
2013-09-28 15:55:00,55.0,39.0,-100.00,SSW,207,6.0,15.0,55,-99.99,,,0.06,698.000000,,2013-09-28 21:55:00,
2013-09-28 16:02:00,53.0,37.0,-100.00,SSW,201,5.0,13.0,55,-99.99,,,0.06,481.000000,,2013-09-28 22:02:00,
2013-09-28 16:43:00,53.0,37.0,-100.00,SSW,201,5.0,13.0,55,-99.99,,,0.06,481.000000,,2013-09-28 22:43:00,
2013-09-28 16:54:00,53.0,37.0,-100.00,SSW,201,5.0,13.0,55,-99.99,,,0.06,481.000000,,2013-09-28 22:54:00,
2013-09-28 17:43:00,52.0,38.0,-100.00,SSW,211,5.0,14.0,59,0.00,,,0.06,286.000000,,2013-09-28 23:43:00,
2013-09-28 17:52:00,52.0,38.0,-100.00,SSW,211,5.0,14.0,59,0.00,,,0.06,286.000000,,2013-09-28 23:52:00,
2013-09-28 18:01:00,52.0,38.0,-100.00,SSW,211,5.0,14.0,59,0.00,,,0.06,286.000000,,2013-09-29 00:01:00,
2013-09-28 18:02:00,49.0,39.0,-100.00,SSW,211,4.0,12.0,68,0.00,,,0.06,136.000000,,2013-09-29 00:02:00,
2013-09-28 18:22:00,49.0,39.0,-100.00,SSW,211,4.0,12.0,68,0.00,,,0.06,136.000000,,2013-09-29 00:22:00,
2013-09-28 18:32:00,49.0,39.0,-100.00,SSW,211,4.0,12.0,68,0.00,,,0.06,136.000000,,2013-09-29 00:32:00,
2013-09-28 18:43:00,49.0,39.0,-100.00,SSW,211,4.0,12.0,68,0.00,,,0.06,136.000000,,2013-09-29 00:43:00,
2013-09-28 18:52:00,49.0,39.0,-100.00,SSW,211,4.0,12.0,68,0.00,,,0.06,136.000000,,2013-09-29 00:52:00,
2013-09-28 19:02:00,46.0,39.0,-100.00,WSW,246,3.0,11.0,75,0.01,,,0.07,36.000000,,2013-09-29 01:02:00,
2013-09-28 19:22:00,46.0,39.0,-100.00,WSW,246,3.0,11.0,75,0.01,,,0.07,36.000000,,2013-09-29 01:22:00,
2013-09-28 19:32:00,46.0,39.0,-100.00,WSW,246,3.0,11.0,75,0.01,,,0.07,36.000000,,2013-09-29 01:32:00,
2013-09-28 19:43:00,46.0,39.0,-100.00,WSW,246,3.0,11.0,75,0.01,,,0.07,36.000000,,2013-09-29 01:43:00,
2013-09-28 19:52:00,46.0,39.0,-100.00,WSW,246,3.0,11.0,75,0.01,,,0.07,36.000000,,2013-09-29 01:52:00,
2013-09-28 20:02:00,45.0,39.0,-100.00,SSW,200,2.0,10.0,80,0.00,,,0.07,2.000000,,2013-09-29 02:02:00,
2013-09-28 20:22:00,45.0,39.0,-100.00,SSW,200,2.0,10.0,80,0.00,,,0.07,2.000000,,2013-09-29 02:22:00,
2013-09-28 20:33:00,45.0,39.0,-100.00,SSW,200,2.0,10.0,80,0.00,,,0.07,2.000000,,2013-09-29 02:33:00,
2013-09-28 20:43:00,45.0,39.0,-100.00,SSW,200,2.0,10.0,80,0.00,,,0.07,2.000000,,2013-09-29 02:43:00,
2013-09-28 20:53:00,45.0,39.0,-100.00,SSW,200,2.0,10.0,80,0.00,,,0.07,2.000000,,2013-09-29 02:53:00,
2013-09-28 21:02:00,-999.0,-99.9,-100.00,SSW,211,4.0,17.0,-999,-99.99,,,-99.99,0.000000,,2013-09-29 03:02:00,
2013-09-28 21:44:00,45.0,39.0,-100.00,SSW,211,4.0,17.0,80,0.02,,,0.09,0.000000,,2013-09-29 03:44:00,
2013-09-28 21:55:00,45.0,39.0,-100.00,SSW,211,4.0,17.0,80,0.02,,,0.09,0.000000,,2013-09-29 03:55:00,
2013-09-28 22:02:00,46.0,40.0,-100.00,SSW,200,5.0,15.0,78,0.01,,,0.10,0.000000,,2013-09-29 04:02:00,
2013-09-28 22:44:00,46.0,40.0,-100.00,SSW,200,5.0,15.0,78,0.01,,,0.10,0.000000,,2013-09-29 04:44:00,
2013-09-28 22:54:00,46.0,40.0,-100.00,SSW,200,5.0,15.0,78,0.01,,,0.10,0.000000,,2013-09-29 04:54:00,
2013-09-28 23:02:00,45.0,39.0,-100.00,SSW,205,3.0,8.0,78,0.00,,,0.10,0.000000,,2013-09-29 05:02:00,
2013-09-28 23:22:00,45.0,39.0,-100.00,SSW,205,3.0,8.0,78,0.00,,,0.10,0.000000,,2013-09-29 05:22:00,
2013-09-28 23:34:00,45.0,39.0,-100.00,SSW,205,3.0,8.0,78,0.00,,,0.10,0.000000,,2013-09-29 05:34:00,
2013-09-28 23:43:00,45.0,39.0,-100.00,SSW,205,3.0,8.0,78,0.00,,,0.10,0.000000,,2013-09-29 05:43:00,
2013-09-28 23:52:00,45.0,39.0,-100.00,SSW,205,3.0,8.0,78,0.00,,,0.10,0.000000,,2013-09-29 05:52:00,